Weather History for K08D - July, 2013

Change the Weather History Date:

Tuesday, July 9, 2013

  Actual Average (KMOT) Record (KMOT)
Temperature  
Mean Temperature 60 °F 69 °F  
Max Temperature 68 °F 81 °F 101 °F (1921)
Min Temperature 53 °F 58 °F 40 °F (1955)
Degree Days  
Heating Degree Days 4    
Cooling Degree Days 0 5  
Month to date cooling degree days 42  
Year to date cooling degree days 131  
Since 1 June cooling degree days 115  
Growing Degree Days 10 (Base 50)    
Moisture  
Dew Point 57 °F    
Average Humidity 87    
Maximum Humidity 100    
Minimum Humidity 60    
Precipitation  
Precipitation 0.00 in 0.09 in 1.68 in (1992)
Month to date precipitation 0.84  
Year to date precipitation 9.81  
Sea Level Pressure  
Sea Level Pressure 30.05 in    
Wind  
Wind Speed 9 mph (North)    
Max Wind Speed 21 mph    
Max Gust Speed 26 mph    
Visibility 10 miles    
Events      
T = Trace of Precipitation, MM = Missing Value Source: NWS Daily Summary

Daily Weather History Graph

Daily Weather History Graph

Search for Another Location

Airport or City:

Trip Planner

Search our weather history database for the weather conditions in past years. The results will help you decide how hot, cold, wet, or windy it might be!

Date:

Astronomy

Jul. 09, 2013 Rise Set
Actual Time 5:59 AM CDT 9:50 PM CDT
Civil Twilight 5:18 AM CDT 10:30 PM CDT
Nautical Twilight 4:22 AM CDT 11:25 PM CDT
Astronomical Twilight 2:57 AM CDT 12:49 AM CDT
Moon 7:36 AM CDT (7/9) 10:14 PM CDT (7/9)
Length of Visible Light 17h 12m
Length of Day
15h 51m
New Moon, 2% of the Moon is Illuminated
Jul 9
New Moon
Jul 15
First Quarter
Jul 22
Full
Jul 29
Last Quarter
Aug 6
New

Hourly Weather History & Observations

Time (CDT) Temp. Dew Point Humidity Pressure Visibility Wind Dir Wind Speed Gust Speed Precip Events Conditions
12:15 AM 62.6 °F 62.6 °F 100% 29.93 in 10.0 mi SSW 15.0 mph 23.0 mph N/A   Clear
12:35 AM 60.8 °F 60.8 °F 100% 29.90 in 10.0 mi SSW 20.7 mph 26.5 mph N/A   Clear
12:55 AM 62.6 °F 62.6 °F 100% 29.91 in 10.0 mi SW 4.6 mph - N/A   Clear
1:15 AM 64.4 °F 60.8 °F 88% 29.93 in 10.0 mi NNW 9.2 mph - N/A   Clear
1:35 AM 62.6 °F 62.6 °F 100% 29.93 in 10.0 mi NNW 9.2 mph - N/A   Scattered Clouds
1:55 AM 62.6 °F 62.6 °F 100% 29.92 in 10.0 mi NNW 9.2 mph - N/A   Partly Cloudy
2:15 AM 62.6 °F 62.6 °F 100% 29.93 in 10.0 mi NNW 11.5 mph - N/A   Clear
2:35 AM 60.8 °F 60.8 °F 100% 29.94 in 10.0 mi NNW 9.2 mph - N/A   Clear
2:55 AM 60.8 °F 60.8 °F 100% 29.96 in 10.0 mi North 6.9 mph - N/A   Clear
3:15 AM 60.8 °F 60.8 °F 100% 29.97 in 10.0 mi North 9.2 mph - N/A   Clear
3:35 AM 60.8 °F 60.8 °F 100% 29.97 in 10.0 mi NNE 9.2 mph - N/A   Clear
3:55 AM 59.0 °F 59.0 °F 100% 29.96 in 10.0 mi NNE 8.1 mph - N/A   Clear
4:15 AM 59.0 °F 57.2 °F 94% 29.95 in 10.0 mi NE 8.1 mph - N/A   Clear
4:35 AM 59.0 °F 59.0 °F 100% 29.96 in 10.0 mi North 8.1 mph - N/A   Clear
4:55 AM 57.2 °F 57.2 °F 100% 29.95 in 10.0 mi NE 9.2 mph 19.6 mph N/A   Clear
5:15 AM 57.2 °F 57.2 °F 100% 29.96 in 10.0 mi NE 8.1 mph - N/A   Clear
5:35 AM 57.2 °F 57.2 °F 100% 29.96 in 10.0 mi NE 6.9 mph - N/A   Clear
5:55 AM 57.2 °F 57.2 °F 100% 29.98 in 10.0 mi NNE 6.9 mph - N/A   Clear
6:15 AM 57.2 °F 57.2 °F 100% 29.99 in 10.0 mi NNE 5.8 mph - N/A   Clear
6:35 AM 57.2 °F 57.2 °F 100% 30.00 in 10.0 mi NE 3.5 mph - N/A   Clear
6:55 AM 57.2 °F 57.2 °F 100% 30.00 in 10.0 mi NNE 3.5 mph - N/A   Partly Cloudy
7:15 AM 57.2 °F 57.2 °F 100% 30.00 in 10.0 mi NE 3.5 mph - N/A   Mostly Cloudy
7:35 AM 57.2 °F 57.2 °F 100% 30.01 in 10.0 mi NNE 3.5 mph - N/A   Scattered Clouds
7:55 AM 59.0 °F 59.0 °F 100% 30.01 in 10.0 mi NE 3.5 mph - N/A   Clear
8:15 AM 59.0 °F 57.2 °F 94% 30.01 in 10.0 mi Calm Calm - N/A   Clear
8:35 AM 60.8 °F 59.0 °F 94% 30.01 in 10.0 mi NE 4.6 mph - N/A   Clear
8:55 AM 62.6 °F 59.0 °F 88% 30.02 in 10.0 mi ENE 3.5 mph - N/A   Clear
9:15 AM 62.6 °F 60.8 °F 94% 30.04 in 10.0 mi North 11.5 mph - N/A   Mostly Cloudy
9:35 AM 60.8 °F 60.8 °F 100% 30.04 in 10.0 mi NNE 11.5 mph - N/A   Overcast
9:55 AM 59.0 °F 59.0 °F 100% 30.05 in 10.0 mi NNE 9.2 mph - N/A   Overcast
10:15 AM 60.8 °F 59.0 °F 94% 30.05 in 10.0 mi NE 9.2 mph - N/A   Overcast
10:35 AM 62.6 °F 59.0 °F 88% 30.06 in 10.0 mi NNE 8.1 mph - N/A   Overcast
10:55 AM 60.8 °F 59.0 °F 94% 30.06 in 10.0 mi NNE 8.1 mph - N/A   Overcast
11:15 AM 62.6 °F 57.2 °F 82% 30.06 in 10.0 mi North 8.1 mph - N/A   Overcast
11:35 AM 62.6 °F 57.2 °F 82% 30.07 in 10.0 mi North 8.1 mph - N/A   Overcast
11:55 AM 62.6 °F 57.2 °F 82% 30.07 in 10.0 mi North 10.4 mph 16.1 mph N/A   Overcast
12:15 PM 62.6 °F 57.2 °F 82% 30.07 in 10.0 mi North 9.2 mph - N/A   Overcast
12:35 PM 62.6 °F 57.2 °F 82% 30.08 in 10.0 mi NNE 9.2 mph - N/A   Overcast
12:55 PM 62.6 °F 55.4 °F 77% 30.08 in 10.0 mi North 11.5 mph - N/A   Overcast
1:15 PM 62.6 °F 55.4 °F 77% 30.09 in 10.0 mi NNE 10.4 mph - N/A   Overcast
1:35 PM 64.4 °F 57.2 °F 77% 30.09 in 10.0 mi NE 8.1 mph - N/A   Overcast
1:55 PM 64.4 °F 55.4 °F 73% 30.10 in 10.0 mi North 12.7 mph - N/A   Mostly Cloudy
2:15 PM 64.4 °F 55.4 °F 73% 30.10 in 10.0 mi North 10.4 mph - N/A   Mostly Cloudy
2:35 PM 66.2 °F 55.4 °F 68% 30.10 in 10.0 mi North 11.5 mph 17.3 mph N/A   Scattered Clouds
2:55 PM 66.2 °F 55.4 °F 68% 30.11 in 10.0 mi North 9.2 mph - N/A   Scattered Clouds
3:15 PM 66.2 °F 57.2 °F 73% 30.11 in 10.0 mi North 16.1 mph 19.6 mph N/A   Mostly Cloudy
3:35 PM 66.2 °F 55.4 °F 68% 30.10 in 10.0 mi North 15.0 mph - N/A   Scattered Clouds
3:55 PM 66.2 °F 57.2 °F 73% 30.11 in 10.0 mi North 15.0 mph 20.7 mph N/A   Partly Cloudy
4:15 PM 66.2 °F 55.4 °F 68% 30.11 in 10.0 mi NNW 12.7 mph 20.7 mph N/A   Partly Cloudy
4:35 PM 66.2 °F 57.2 °F 73% 30.11 in 10.0 mi North 11.5 mph 17.3 mph N/A   Partly Cloudy
4:55 PM 66.2 °F 55.4 °F 68% 30.11 in 10.0 mi North 10.4 mph - N/A   Clear
5:15 PM 66.2 °F 55.4 °F 68% 30.12 in 10.0 mi North 10.4 mph - N/A   Clear
5:35 PM 68.0 °F 55.4 °F 64% 30.12 in 10.0 mi NNW 10.4 mph - N/A   Partly Cloudy
5:55 PM 66.2 °F 55.4 °F 68% 30.13 in 10.0 mi NNW 10.4 mph - N/A   Partly Cloudy
6:15 PM 66.2 °F 53.6 °F 64% 30.13 in 10.0 mi NNW 9.2 mph - N/A   Partly Cloudy
6:35 PM 68.0 °F 53.6 °F 60% 30.13 in 10.0 mi NNW 10.4 mph - N/A   Partly Cloudy
6:55 PM 66.2 °F 53.6 °F 64% 30.13 in 10.0 mi NNW 11.5 mph 18.4 mph N/A   Clear
7:15 PM 66.2 °F 55.4 °F 68% 30.13 in 10.0 mi NNW 10.4 mph - N/A   Clear
7:35 PM 66.2 °F 55.4 °F 68% 30.14 in 10.0 mi NNW 9.2 mph - N/A   Clear
7:55 PM 66.2 °F 55.4 °F 68% 30.14 in 10.0 mi NNW 9.2 mph - N/A   Clear
8:15 PM 66.2 °F 55.4 °F 68% 30.13 in 10.0 mi North 10.4 mph - N/A   Clear
8:35 PM 64.4 °F 55.4 °F 73% 30.13 in 10.0 mi North 6.9 mph - N/A   Clear
8:55 PM 64.4 °F 55.4 °F 73% 30.13 in 10.0 mi North 5.8 mph - N/A   Clear
9:15 PM 62.6 °F 57.2 °F 82% 30.13 in 10.0 mi North 3.5 mph - N/A   Clear
9:35 PM 59.0 °F 57.2 °F 94% 30.13 in 10.0 mi Calm Calm - N/A   Clear
9:55 PM 59.0 °F 57.2 °F 94% 30.14 in 10.0 mi Calm Calm - N/A   Clear
10:15 PM 57.2 °F 57.2 °F 100% 30.14 in 10.0 mi Calm Calm - N/A   Clear
10:35 PM 57.2 °F 57.2 °F 100% 30.15 in 10.0 mi NW 4.6 mph - N/A   Scattered Clouds
10:55 PM 57.2 °F 57.2 °F 100% 30.14 in 10.0 mi South 3.5 mph - N/A   Overcast
11:15 PM 53.6 °F 53.6 °F 100% 30.15 in 10.0 mi WSW 3.5 mph - N/A   Overcast
11:35 PM 53.6 °F 53.6 °F 100% 30.15 in 10.0 mi WSW 3.5 mph - N/A   Overcast
11:55 PM 53.6 °F 53.6 °F 100% 30.15 in 10.0 mi SW 4.6 mph - N/A   Overcast